Regional Weather Roundup
Issued by NWS

Home | Current Version | Previous Version | Graphics & Text | Print | Product List | Glossary On
Versions: 1 2 3 4 5 6 7 8 9 10 11 12 13 14 15 16 17 18 19 20 21 22 23 24 25 26 27 28 29 30 31 32 33 34 35 36 37 38 39 40 41 42 43 44 45 46 47 48 49 50
000
ASUS45 KABQ 031710
RWRNM
WEATHER ROUNDUP FOR NEW MEXICO
NATIONAL WEATHER SERVICE ALBUQUERQUE NM
1000 AM MST TUE MAR 03 2015

NOTE: "FAIR" MEANS FEW OR NO CLOUDS BELOW 12,000 FEET AGL WITH NO
       SIGNIFICANT WEATHER OR OBSTRUCTIONS TO VISION.

      THIS PRODUCT IS RELEASED AS TWO VERSIONS.  ONE VERSION NEAR
      THE TOP OF THE HOUR CONTAINING PRELIMINARY DATA FROM ALBUQUERQUE
      AND OTHER STATIONS.  A FINAL VERSION WITH ADDITIONAL DATA IS
      ISSUED ABOUT 10 MINUTES AFTER THE HOUR.

NMZ501-503-504-510>518-031800-
NORTHWEST PLATEAU/NORTHCENTRAL MOUNTAINS

CITY           SKY/WX    TMP DP  RH WIND       PRES   REMARKS
FARMINGTON     PTSUNNY   38  29  70 VRB3      29.88F
LOS ALAMOS     MOSUNNY   35  23  63 SE6       29.92R WCI  29
SANTA FE       MOSUNNY   40  24  53 W12       29.91S WCI  33
TAOS           MOSUNNY   32  18  55 SW7       29.90F WCI  26
ANGEL FIRE     FAIR      29  18  64 W18G26    29.84F WCI  17

$$
NMZ402-403-502-505>509-031800-
WESTCENTRAL MOUNTAINS/SOUTHWEST MOUNTAINS

CITY           SKY/WX    TMP DP  RH WIND       PRES   REMARKS
GALLUP         MOSUNNY   37  28  70 SW9       29.91F WCI  30
GRANTS         SUNNY     37  26  63 CALM      29.94S
SILVER CITY    PTSUNNY   46  37  71 W6        29.96F

$$
NMZ407-409-411-412-031800-
SOUTHERN DESERTS

CITY           SKY/WX    TMP DP  RH WIND       PRES   REMARKS
LORDSBURG      PTSUNNY   46  41  81 CALM      29.95S
DEMING         CLOUDY    48  43  82 W6        29.94S
LAS CRUCES     RAIN      48  45  89 NW3       29.95S
HOLLOMAN AFB   PTSUNNY   51  50  99 S6        29.92F
ALAMOGORDO     CLOUDY    50  50 100 E7        29.96S
T OR C         CLOUDY    46  42  86 VRB3      29.92F

$$
NMZ519>523-031800-
CENTRAL VALLEYS/CENTRAL HIGHLANDS

CITY           SKY/WX    TMP DP  RH WIND       PRES   REMARKS
ALBUQUERQUE    PTSUNNY   45  27  49 CALM      29.93S
DOUBLE EAGLE   PTSUNNY   43  30  61 S9        29.93S
MORIARTY ARPT  FAIR      42  27  56 W7        29.93S
CLINES CORNERS MOSUNNY   40  28  62 W26G33    29.87R WCI  29
BELEN          FAIR      46  31  55 W7        29.93F
SOCORRO          N/A     45  35  67 CALM      29.93F

$$
NMZ524>526-539-540-031800-
SOUTHCENTRAL MOUNTAINS

CITY           SKY/WX    TMP DP  RH WIND       PRES   REMARKS
RUIDOSO        LGT RAIN  41  39  93 S9        29.96S

$$
NMZ527>531-031800-
NORTHEAST HIGHLANDS/NORTHEAST PLAINS

CITY           SKY/WX    TMP DP  RH WIND       PRES   REMARKS
LAS VEGAS      MOSUNNY   41  20  43 SW23G36   29.85F
RATON          MOSUNNY   42  21  43 S18       29.79F
CLAYTON        MOSUNNY   47  24  40 W14       29.82S

$$
NMZ532>537-031800-
EASTCENTRAL PLAINS

CITY           SKY/WX    TMP DP  RH WIND       PRES   REMARKS
TUCUMCARI      CLOUDY    50  33  52 W17       29.85F
CANNON AFB     CLOUDY    45  37  73 NW10      29.86F
CLOVIS AIRPORT CLOUDY    45  36  70 NW12      29.87F

$$
NMZ028-029-538-031800-
SOUTHEAST PLAINS

CITY           SKY/WX    TMP DP  RH WIND       PRES   REMARKS
ROSWELL        CLOUDY    39  37  92 N3        29.92F FOG
ARTESIA        CLOUDY    39  39 100 N6        29.94R FOG     WCI  35
CARLSBAD       CLOUDY    43  37  79 NW5       29.91R
HOBBS          PTSUNNY   45  45 100 VRB5      29.91S


$$



USA.gov is the U.S. government's official web portal to all federal, state and local government web resources and services.